Weather History for PABR - June, 2013

Change the Weather History Date:

Saturday, June 22, 2013

  Actual Average Record
Temperature  
Mean Temperature 34 °F 38 °F  
Max Temperature 37 °F 44 °F 62 °F (1941)
Min Temperature 31 °F 33 °F 23 °F (1949)
Degree Days  
Heating Degree Days 31 27  
Month to date heating degree days 576 674  
Since 1 June heating degree days 576 674  
Since 1 July heating degree days 18011 19181  
Cooling Degree Days 0    
Month to date cooling degree days 0  
Year to date cooling degree days 0  
Since 1 June cooling degree days 0  
Moisture  
Dew Point 31 °F    
Average Humidity 0    
Maximum Humidity 93    
Minimum Humidity 75    
Precipitation  
Precipitation 0.04 in 0.02 in 0.36 in (1929)
Month to date precipitation 0.55 0.20  
Year to date precipitation 1.77 0.90  
Snow  
Snow 0.00 in 0.00 in 1.20 in (1973)
Month to date snowfall 0.2 0.6  
Since 1 June snowfall 0.2 0.6  
Since 1 July snowfall 62.7 37.6  
Snow Depth 0.00 in    
Sea Level Pressure  
Sea Level Pressure 29.82 in    
Wind  
Wind Speed 10 mph (NNE)    
Max Wind Speed 15 mph    
Max Gust Speed 18 mph    
Visibility 3 miles    
Events Fog , Rain    
T = Trace of Precipitation, MM = Missing Value Source: NWS Daily Summary

Daily Weather History Graph

Daily Weather History Graph

Search for Another Location

Airport or City:

Trip Planner

Search our weather history database for the weather conditions in past years. The results will help you decide how hot, cold, wet, or windy it might be!

Date:

Astronomy

Dec. 31, 1969 Rise Set
Actual Time Sun does not set Sun does not set
Civil Twilight Sun does not set Sun does not set
Nautical Twilight Sun does not set Sun does not set
Astronomical Twilight Sun does not set Sun does not set
Moon No Moon Rise No Moon Set
Length of Visible Light 24h 00m
Length of Day
24h 00m
Waxing Gibbous, 99% of the Moon is Illuminated
Jun 22
Waxing Gibbous
Jun 23
Full
Jun 29
Last Quarter
Jul 7
New
Jul 15
First Quarter

Hourly Weather History & Observations

Time (AKDT) Temp. Windchill Dew Point Humidity Pressure Visibility Wind Dir Wind Speed Gust Speed Precip Events Conditions
12:53 AM 37.0 °F 34.5 °F 32.0 °F 82% 29.86 in 10.0 mi WNW 3.5 mph - N/A   Mostly Cloudy
1:53 AM 36.0 °F 29.6 °F 30.9 °F 82% 29.85 in 10.0 mi NW 8.1 mph - N/A   Mostly Cloudy
2:15 AM 35.6 °F 28.6 °F 30.2 °F 81% 29.85 in 9.0 mi North 9.2 mph - N/A   Mostly Cloudy
2:21 AM 33.8 °F 26.4 °F 30.2 °F 87% 29.85 in 0.8 mi NNW 9.2 mph - N/A   Overcast
2:33 AM 33.8 °F 26.4 °F 30.2 °F 87% 29.85 in 0.5 mi North 9.2 mph - N/A Fog Fog
2:53 AM 32.0 °F 24.8 °F 28.9 °F 88% 29.85 in 0.5 mi North 8.1 mph - N/A Fog Fog
3:11 AM 32.0 °F 28.7 °F 28.4 °F 87% 29.85 in 0.2 mi NNE 3.5 mph - N/A Fog Fog
3:53 AM 32.0 °F 24.8 °F 28.9 °F 88% 29.85 in 0.5 mi North 8.1 mph - N/A Fog Fog
4:15 AM 32.0 °F 24.8 °F 28.4 °F 87% 29.84 in 0.2 mi North 8.1 mph - N/A Fog Fog
4:53 AM 30.9 °F 24.3 °F 28.9 °F 92% 29.85 in 0.5 mi North 6.9 mph - N/A Fog Light Freezing Fog
5:43 AM 30.2 °F 23.4 °F 28.4 °F 93% 29.84 in 1.5 mi North 6.9 mph - N/A   Overcast
5:53 AM 30.9 °F 24.3 °F 28.0 °F 89% 29.85 in 1.2 mi North 6.9 mph - N/A   Overcast
5:59 AM 30.2 °F 23.4 °F 28.4 °F 93% 29.84 in 2.5 mi North 6.9 mph - N/A   Overcast
6:51 AM 30.2 °F 25.4 °F 28.4 °F 93% 29.84 in 1.5 mi NNE 4.6 mph - N/A   Overcast
6:53 AM 30.9 °F 24.3 °F 28.0 °F 89% 29.84 in 2.0 mi North 6.9 mph - N/A   Mostly Cloudy
7:17 AM 32.0 °F 26.4 °F 28.4 °F 87% 29.84 in 0.8 mi NNE 5.8 mph - 0.00 in   Light Drizzle
7:28 AM 30.2 °F 22.6 °F 28.4 °F 93% 29.84 in 1.0 mi North 8.1 mph - 0.00 in   Light Freezing Rain
7:53 AM 32.0 °F 23.6 °F 28.9 °F 88% 29.84 in 0.8 mi North 10.4 mph - 0.00 in   Light Drizzle
8:13 AM 32.0 °F 23.0 °F 28.4 °F 87% 29.83 in 0.5 mi North 11.5 mph - 0.00 in Fog Fog
8:44 AM 32.0 °F 23.6 °F 28.4 °F 87% 29.84 in 0.8 mi North 10.4 mph - 0.00 in   Mist
8:51 AM 32.0 °F 24.2 °F 28.4 °F 87% 29.83 in 1.5 mi North 9.2 mph - 0.00 in   Overcast
8:53 AM 32.0 °F 24.2 °F 28.9 °F 88% 29.84 in 1.2 mi North 9.2 mph - 0.00 in   Overcast
9:02 AM 33.8 °F 27.0 °F 30.2 °F 87% 29.83 in 0.8 mi North 8.1 mph - N/A   Overcast
9:10 AM 33.8 °F 25.8 °F 30.2 °F 87% 29.83 in 1.2 mi North 10.4 mph - N/A   Overcast
9:27 AM 33.8 °F 25.8 °F 28.4 °F 81% 29.83 in 3.0 mi NNE 10.4 mph - N/A   Overcast
9:48 AM 33.8 °F 25.8 °F 30.2 °F 87% 29.83 in 1.8 mi North 10.4 mph - N/A   Overcast
9:53 AM 33.1 °F 26.1 °F 30.0 °F 89% 29.83 in 1.0 mi North 8.1 mph - N/A   Overcast
10:05 AM 33.8 °F 26.4 °F 30.2 °F 87% 29.83 in 3.0 mi North 9.2 mph - N/A   Overcast
10:35 AM 33.8 °F 27.7 °F 30.2 °F 87% 29.83 in 2.0 mi NE 6.9 mph - N/A   Overcast
10:53 AM 34.0 °F 26.6 °F 30.9 °F 89% 29.83 in 2.5 mi North 9.2 mph - N/A   Overcast
11:01 AM 33.8 °F 25.8 °F 30.2 °F 87% 29.82 in 3.0 mi North 10.4 mph - N/A   Overcast
11:14 AM 35.6 °F 28.6 °F 30.2 °F 81% 29.82 in 1.8 mi NNE 9.2 mph - N/A   Overcast
11:36 AM 35.6 °F 29.9 °F 32.0 °F 87% 29.83 in 0.8 mi NNE 6.9 mph - N/A   Overcast
11:53 AM 35.1 °F 28.6 °F 30.9 °F 85% 29.83 in 0.8 mi North 8.1 mph - N/A   Overcast
12:12 PM 35.6 °F 28.6 °F 32.0 °F 87% 29.82 in 0.5 mi NNE 9.2 mph - N/A Fog Fog
12:53 PM 35.1 °F 27.4 °F 32.0 °F 89% 29.82 in 0.5 mi NE 10.4 mph - N/A Fog Fog
1:04 PM 35.6 °F 29.2 °F 32.0 °F 87% 29.82 in 0.8 mi NNE 8.1 mph - N/A   Overcast
1:16 PM 35.6 °F 28.0 °F 32.0 °F 87% 29.82 in 2.0 mi NE 10.4 mph - N/A   Overcast
1:23 PM 35.6 °F 27.5 °F 32.0 °F 87% 29.82 in 9.0 mi NE 11.5 mph - N/A   Overcast
1:53 PM 36.0 °F 29.0 °F 32.0 °F 86% 29.83 in 7.0 mi NNE 9.2 mph - N/A   Overcast
2:05 PM 35.6 °F 28.6 °F 32.0 °F 87% 29.82 in 1.8 mi NNE 9.2 mph - N/A   Overcast
2:19 PM 35.6 °F 28.6 °F 32.0 °F 87% 29.82 in 0.8 mi NNE 9.2 mph - N/A   Overcast
2:28 PM 35.6 °F 28.0 °F 32.0 °F 87% 29.82 in 1.5 mi NE 10.4 mph - N/A   Overcast
2:41 PM 35.6 °F 28.6 °F 32.0 °F 87% 29.81 in 0.5 mi NNE 9.2 mph - N/A Fog Fog
2:53 PM 35.1 °F 27.4 °F 32.0 °F 89% 29.82 in 1.0 mi NNE 10.4 mph - N/A   Overcast
3:11 PM 35.6 °F 28.0 °F 32.0 °F 87% 29.81 in 3.0 mi NNE 10.4 mph - N/A   Overcast
3:39 PM 37.4 °F 30.3 °F 30.2 °F 75% 29.81 in 10.0 mi NE 10.4 mph - N/A   Overcast
3:53 PM 37.0 °F 29.8 °F 30.9 °F 79% 29.81 in 10.0 mi NE 10.4 mph - N/A   Overcast
4:13 PM 35.6 °F 27.5 °F 32.0 °F 87% 29.81 in 3.0 mi NNE 11.5 mph - N/A   Overcast
4:53 PM 36.0 °F 28.0 °F 30.9 °F 82% 29.81 in 4.0 mi NNE 11.5 mph - N/A   Haze
5:05 PM 35.6 °F 28.6 °F 32.0 °F 87% 29.80 in 1.5 mi North 9.2 mph - N/A   Overcast
5:17 PM 35.6 °F 28.6 °F 32.0 °F 87% 29.80 in 0.5 mi NNE 9.2 mph - N/A Fog Fog
5:28 PM 35.6 °F 28.0 °F 32.0 °F 87% 29.80 in 0.8 mi NE 10.4 mph - N/A   Mist
5:36 PM 35.6 °F 29.2 °F 32.0 °F 87% 29.80 in 2.0 mi NE 8.1 mph - N/A   Overcast
5:53 PM 36.0 °F 28.0 °F 30.9 °F 82% 29.81 in 10.0 mi ENE 11.5 mph - N/A   Overcast
6:53 PM 35.1 °F 27.9 °F 30.9 °F 85% 29.81 in 10.0 mi ENE 9.2 mph - N/A   Overcast
7:53 PM 36.0 °F 28.5 °F 30.9 °F 82% 29.79 in 10.0 mi NE 10.4 mph - N/A   Overcast
8:09 PM 35.6 °F 28.0 °F 30.2 °F 81% 29.80 in 10.0 mi ENE 10.4 mph - N/A   Overcast
8:53 PM 36.0 °F 29.0 °F 30.9 °F 82% 29.79 in 10.0 mi NE 9.2 mph - 0.00 in   Overcast
9:09 PM 35.6 °F 28.6 °F 32.0 °F 87% 29.79 in 1.2 mi North 9.2 mph - 0.00 in Rain Light Rain
9:13 PM 35.6 °F 27.5 °F 32.0 °F 87% 29.78 in 0.8 mi North 11.5 mph - 0.00 in Rain Light Rain
9:21 PM 35.6 °F 28.6 °F 32.0 °F 87% 29.78 in 0.8 mi North 9.2 mph - 0.01 in Rain Light Rain
9:35 PM 33.8 °F 24.8 °F 32.0 °F 93% 29.78 in 0.8 mi NNE 12.7 mph - 0.02 in Rain Light Rain
9:41 PM 35.6 °F 28.0 °F 32.0 °F 87% 29.78 in 2.0 mi NNE 10.4 mph - 0.02 in Rain Light Rain
9:48 PM 35.6 °F 27.1 °F 32.0 °F 87% 29.78 in 5.0 mi NE 12.7 mph - 0.02 in Rain Light Rain
9:53 PM 35.1 °F 25.9 °F 32.0 °F 89% 29.79 in 9.0 mi NE 13.8 mph - 0.02 in Rain Light Rain
10:53 PM 35.1 °F 26.4 °F 30.9 °F 85% 29.80 in 10.0 mi ENE 12.7 mph - 0.01 in Rain Light Rain
11:53 PM 34.0 °F 25.5 °F 30.9 °F 89% 29.80 in 10.0 mi ENE 11.5 mph - 0.01 in Rain Light Rain